Regional Weather Roundup
Issued by NWS Charleston, SC

Current Version | Previous Version | Graphics & Text | Print | Product List | Glossary On
Versions: 1 2 3 4 5 6 7 8 9 10 11 12 13 14 15 16 17 18 19 20 21 22 23 24 25 26 27 28 29 30 31 32 33 34 35 36 37 38 39 40 41 42 43 44 45 46 47 48 49 50
000 ASUS42 KCHS 160027 RWRCHS REGIONAL WEATHER ROUNDUP NATIONAL WEATHER SERVICE CHARLESTON SC 700 PM EST SUN JAN 15 2017 NOTE: "FAIR" INDICATES FEW OR NO CLOUDS BELOW 12,000 FEET WITH NO SIGNIFICANT WEATHER AND/OR OBSTRUCTIONS TO VISIBILITY. NOT ALL STATIONS ARE QUALITY CONTROLLED. USE DATA WITH CAUTION... ESPECIALLY DEWPOINT OBSERVATIONS. SCZ027-030-031-034>040-042>050-160100- ...SOUTHEAST SOUTH CAROLINA... CITY SKY/WX TMP DP RH WIND PRES REMARKS N CHARLESTON PTCLDY 64 54 69 S6 30.26R 6HR MIN TEMP: 63; 6HR MAX TEMP: 79; WATERFRONT PRK N/A 64 58 81 VRB2 30.25R MOUNT PLEASANT FAIR 61 55 82 E5 30.28R JOHNS ISLAND FAIR 57 55 94 CALM 30.27R PINOPOLIS N/A 66 55 68 CALM 30.17R MONCKS CORNER FAIR 63 55 77 E7 30.27R SUMMERVILLE FAIR 61 57 88 CALM 30.28R BEAUFORT MCAS CLEAR 60 55 83 CALM 30.27R 6HR MIN TEMP: 60; 6HR MAX TEMP: 78; BEAUFORT ARPT FAIR 61 55 82 S7 30.27R HILTON HEAD IS CLEAR 59 57 94 S5 30.28R WALTERBORO MOCLDY 64 55 72 S3 30.27R ALLENDALE MOCLDY 63 55 77 CALM 30.25S ...SOUTHERN MIDLANDS AND PEE DEE... CITY SKY/WX TMP DP RH WIND PRES REMARKS GEORGETOWN FAIR 55 54 94 E7 30.32R KINGSTREE FAIR 59 54 82 E8 30.29R ORANGEBURG CLEAR 61 55 81 CALM 30.25R 6HR MIN TEMP: 61; 6HR MAX TEMP: 76; BARNWELL FAIR 63 57 82 CALM 30.26R AIKEN FAIR 57 52 82 CALM 30.30R MANNING MOCLDY 63 55 77 NE6 30.28R COLUMBIA CLOUDY 65 53 65 CALM 30.24R 6HR MIN TEMP: 65; 6HR MAX TEMP: 80; SUMTER CLOUDY 64 54 70 E6 30.25R 6HR MIN TEMP: 64; 6HR MAX TEMP: 75; FLORENCE PTCLDY 58 52 80 E6 30.29R 6HR MIN TEMP: 58; 6HR MAX TEMP: 70; MYRTLE BEACH CLEAR 55 50 82 E12 30.33R N MYRTLE BEACH CLEAR 55 50 83 E9 30.31R 6HR MIN TEMP: 55; 6HR MAX TEMP: 62; $$ GAZ063-065-086>088-099>101-113>116-118-119-134>141-150-160100- ...SOUTHEAST GEORGIA... CITY SKY/WX TMP DP RH WIND PRES REMARKS SAVANNAH ARPT PTCLDY 64 55 72 SE5 30.27R 6HR MIN TEMP: 64; 6HR MAX TEMP: 78; HUNTER AAF PTCLDY 62 56 80 SE3 30.25R 6HR MIN TEMP: 62; 6HR MAX TEMP: 77; FORT STEWART CLEAR 66 58 75 CALM 30.25R 6HR MIN TEMP: 64; 6HR MAX TEMP: 77; STATESBORO PTCLDY 57 55 91 CALM 30.26S SYLVANIA PTCLDY N/A N/A N/A CALM 30.27S CLAXTON FAIR N/A N/A N/A CALM 30.26S ...CSRA...CENTRAL AND FAR SOUTHEAST GEORGIA... CITY SKY/WX TMP DP RH WIND PRES REMARKS THOMSON CLEAR 62 57 84 CALM 30.30R AUGUSTA-BUSH PTCLDY 61 55 81 CALM 30.24R 6HR MIN TEMP: 61; 6HR MAX TEMP: 79; AUGUSTA-DANIEL PTCLDY 67 51 56 CALM 30.26R SWAINSBORO MOCLDY 61 52 72 MISG 30.26S VIDALIA CLEAR 61 57 88 CALM 30.26R EASTMAN FAIR 61 47 59 CALM 30.28R HAZLEHURST FAIR 61 58 90 CALM 30.25R ALMA PTCLDY 61 60 97 CALM 30.25R 6HR MIN TEMP: 60; 6HR MAX TEMP: 77; WAYCROSS MOCLDY 68 65 92 SE3 30.25S JESUP FAIR 64 61 88 CALM 30.27R BAXLEY FAIR 61 61 100 CALM 30.26R BRUNSWICK CLOUDY 64 61 88 SE3 30.28S SAINT SIMONS CLOUDY 62 58 86 SE3 30.27R 6HR MIN TEMP: 62; 6HR MAX TEMP: 69; $$ SCZ027-028-034-036>038-045-046-048>050-GAZ119-141-160100- ...LAKE AND SUPPLEMENTAL COASTAL OBSERVATIONS... STATION/POSITION TIME TEMP WIND PRES WAVE SWELL AIR SEA DIR/SP/G HT/PER HT/PER/DIR (UTC) (F) (DEG/KT/KT) (MB) (FT/S) (FT/S/D) WINYAH BAY 2330 56 60/ 6 1026.0R LAKE MURRAY 2320 63 CALM / 2 1023.4 ACE BASIN NERRS 2245 64 CALM 1024.0 FORT PULASKI 0000 59 54 200/ 4/ 5 1025.4 SAPELO ISLAND 2300 64 130/ 4 1025.0 $$ ANZ835-935-AMZ111-154-330-350-352-354-370-450-454-472-160100- ...C-MAN AND BUOY OBSERVATIONS... STATION/POSITION TIME TEMP WIND PRES WAVE SWELL AIR SEA DIR/SP/G HT/PER HT/PER/DIR (UTC) (F) (DEG/KT/KT) (MB) (FT/S) (FT/S/D) BUOY 41004 2350 68 71 CALM / 2 1024.9R 3/ 9 3/120/ 9 BUOY 41008 2350 61 60 110/ 6/ 8 1025.0R 3/11 3/ 80/11 FOLLY BEACH CMAN 0000 57 220/ 4/ 5 1025.3R CAPERS NEARSHORE 2308 56 55 210/ 4/ 6 1024.5R FRIPP NEARSHORE 0008 59 56 190/ 6/ 8 1024.8R STATION/POSITION TIME TEMP WIND PRES WAVE SWELL AIR SEA DIR/SP/G HT/PER HT/PER/DIR (UTC) (F) (DEG/KT/KT) (MB) (FT/S) (FT/S/D) 5E ST. MARYS GA 0000 61 N/A 3/11 2/110/11 FRYING PAN BUOY 0000 63 68 50/ 14/ 17 1026.0 BUOY 41025 2350 52 74 20/ 16/ 19 1027.3R 5/ 5 2/ 60/11 CAPE LOOKOUT NC 0000 48 10/ 12/ 15 1027.5R BUOY 41002 2350 69 72 30/ 8/ 12 1025.2R 4/11 3/ 70/11 BUOY 41010 NOT AVBL ST AUGUSTINE FL 0000 65 66 50/ 9/ 10 1025.5R $$

USA.gov is the U.S. government's official web portal to all federal, state and local government web resources and services.